Location: Unspecified
(35.7250°N, 0.0000°E)
Time: 03:40:28
(UTC+00:00)

Explorer 7 - Pass Details

Date: 22 June 2019
Orbit: 485 x 680 km, 50.3° (Epoch: 19 July)

Event Time Altitude Azimuth Distance (km) Brightness Sun altitude
Rises 12:01:38 0° 309° (NW) 2,898 10.4 77.7°
Reaches altitude 10° 12:05:00 10° 335° (NNW) 2,033 9.7 77.7°
Maximum altitude 12:07:28 14° 7° (N) 1,805 9.5 77.7°
Drops below altitude 10° 12:09:58 10° 39° (NE) 2,080 9.8 77.6°
Sets 12:13:30 0° 64° (ENE) 3,017 10.5 77.5°
